522  
ASUS42 KCAE 010110  
RWRCAE  
REGIONAL WEATHER ROUNDUP  
NATIONAL WEATHER SERVICE COLUMBIA SC  
900 PM EDT SAT OCT 31 2020  
 
NOTE: "FAIR" INDICATES FEW OR NO CLOUDS BELOW 12,000 FEET WITH NO  
SIGNIFICANT WEATHER AND/OR S TO VISIBILITY
.  
 
NOT ALL STATIONS ARE QUALITY CONTROLLED BY THE NATIONAL  
WEATHER SERVICE. USE DATA WITH CAUTION...ESPECIALLY  
DEWPOINT OBSERVATIONS.  
 
SCZ001>056-GAZ040-063>065-077-010200-   
..UPSTATE SOUTH CAROLINA
 
 
 
CITY SKY/WX TMP DP RH WIND PRES REMARKS
 
ANDERSON CLOUDY 56 45 66 E9 30.33R  
LIBERTY CLOUDY 54 47 77 NE5 30.33S  
SPARTANBURG CLOUDY 54 45 71 CALM 30.34S  
CLEMSON CLOUDY 55 44 66 E6 30.33S  
GREENVILLE CLOUDY 57 45 64 NE7 30.34S  
GREENWOOD CLOUDY 55 49 80 NE5 30.34S  
GREER CLOUDY 53 47 79 NE3 30.34F  
ROCK HILL CLOUDY 55 46 71 CALM 30.35S  
CHESTER CLOUDY 54 45 71 E6 30.35S  
LAURENS CLOUDY 55 46 71 E3 30.33S  
 
   
..CENTRAL SOUTH CAROLINA
 
 
 
CITY SKY/WX TMP DP RH WIND PRES REMARKS
 
COLUMBIA APT CLOUDY 59 45 59 NE8 30.32F  
COLUMBIA OWENS CLOUDY 60 46 59 E7 30.33F  
MCENTIRE ANGB CLOUDY 58 48 69 NE3 30.31F  
ORANGEBURG CLOUDY 61 48 62 NE9 30.31S  
SUMTER SHAW CLOUDY 59 47 65 NE6 30.33S  
NEWBERRY CLOUDY 55 46 71 E6 30.36S  
AIKEN CLOUDY 57 48 72 NE8 30.32F  
BARNWELL CLOUDY 61 50 67 NE10 30.29F  
MANNING CLOUDY 59 48 67 NE7 30.31F  
CAMDEN LGT RAIN 57 48 72 CALM 30.34F  
LANCASTER CLOUDY 55 46 71 NE5 30.34S  
WINNSBORO CLOUDY 55 46 71 NE7 30.33S  
 
   
..EASTERN AND COASTAL SOUTH CAROLINA
 
 
 
CITY SKY/WX TMP DP RH WIND PRES REMARKS
 
MYRTLE BEACH MOCLDY 64 55 72 NE7 30.33S  
N MYRTLE BCH CLEAR 59 52 77 NE12 30.33S  
CONWAY CLOUDY 57 52 82 NE5 30.34S  
MARION CLOUDY 55 50 82 NE5 30.34F  
HARTSVILLE CLOUDY 57 46 67 E6 30.34F  
FLORENCE CLOUDY 58 48 69 NE6 30.34F  
DARLINGTON CLOUDY 57 49 74 NE7 30.35F  
CHARLESTON APT MOCLDY 62 57 83 NE7 30.28F  
MOUNT PLEASANT CLOUDY 64 61 88 CALM 30.28S  
WALTERBORO CLOUDY 63 54 72 NE13 30.29S  
BEAUFORT MOCLDY 65 58 78 NE10 30.25F  
HILTON HEAD CLOUDY 68 64 88 NE9G18 30.24F  
 
   
..EASTERN GEORGIA
 
 
 
CITY SKY/WX TMP DP RH WIND PRES REMARKS
 
AUGUSTA BUSH F CLOUDY 62 49 62 NE7 30.29S  
AUGUSTA DANIEL CLOUDY 61 48 62 NE10 30.30F  
THOMSON CLOUDY 58 51 76 SE7 30.30F  
WASHINGTON CLOUDY 55 50 82 CALM 30.31S  
CLAXTON CLOUDY 65 56 73 E7 30.26R HAZE  
SYLVANIA CLOUDY 63 54 70 NE7 30.28R  
STATESBORO CLOUDY 62 53 71 NE5 30.27S  
SAVANNAH CLOUDY 67 61 81 NE8 30.24S  
 
   
..SOUTHERN NORTH CAROLINA
 
 
 
CITY SKY/WX TMP DP RH WIND PRES REMARKS
 
CHARLOTTE MOCLDY 56 44 64 E6 30.35S  
MONROE MOCLDY 53 46 77 NE5 30.34F  
WADESBORO PTCLDY 53 48 83 CALM 30.35F  
ROCKINGHAM CLOUDY 55 47 76 NE3 30.35F  
RUTHERFORDTON CLOUDY 52 45 76 CALM 30.36F  
ASHEVILLE MOCLDY 48 41 76 S6 30.34R  
 

 
 
 
CLICK HERE TO GO TO PREVIOUS BULLETINS.

The Nexlab SC Page
The Nexlab GA Page Main Text Page